SCP
0 0 0 0 0 -0 -0 -0 -0 -0 0 0 0 0 0 0 -0 -0 0 -0 -0 -0 -0 -0 -0 0 -0 -0 -0 -0 0 0 0 0 0 -0 0 0 0 0 0 0 0
0 -0 0 0 0 0 -0 -0 -0 -0 -0 -0 0 0 0 0 0 0 0 -0 -0 -0 -0 -0 0 0 0 0 0 -0 -0 -0 -0 -0 0 -0 -0 -0 0 -0 -0 0 0
0 0 0 0 0 0 -0 -0 -0 -0 -0 -0 -0 0 0 0 -0 -0 -0 0 -0 -0 -0 -0 -0 0 0 0 0 0 -0 -0 -0 -0 0 0 -0 -0 -0 -0 -0 0 0
-0 0 0 0 0 0 -0 0 -0 -0 0 -0 0 0 0 0 -0 -0 -0 0 -0 -0 -0 -0 0 0 0 0 0 0 0 0 0 0 -0 -0 -0 -0 -0 -0 -0 -0 0
0 0 0 0 0 0 0 0 -0 -0 -0 -0 0 -0 0 0 -0 -0 -0 -0 -0 -0 -0 -0 0 0 0 0 0 0 0 0 0 0 0 0 -0 -0 -0 -0 -0 -0 -0
0 0 0 0 0 0 0 -0 0 -0 0 -0 0 0 0 -0 0 0 -0 -0 -0 -0 -0 -0 0 0 0 0 0 0 0 0 0 0 0 0 0 0 0 0 -0 -0 -0
0 0 0 0 0 0 0 0 0 -0 -0 0 -0 -0 -0 -0 -0 -0 -0 -0 -0 -0 -0 0 -0 0 0 0 0 0 1 0 0 0 0 0 0 0 0 0 0 0 0
-0 0 0 0 0 0 0 0 -0 0 0 0 -0 0 -0 -0 -0 -0 -0 -0 -0 -0 -0 -0 -0 -0 -0 0 0 0 0 0 0 0 0 0 0 0 0 0 0 0 0
-0 -0 -0 -0 0 0 0 -0 -0 0 0 0 -0 -0 0 -0 -0 -0 -0 -0 -0 -0 -0 -0 -0 -0 0 -0 0 0 0 0 0 0 0 0 0 -0 -0 -0 0 0 0
-0 -0 0 0 0 -0 -0 0 0 -0 0 -0 -0 0 -0 0 0 0 0 -0 -0 -0 -0 -0 -0 -0 -0 -0 -0 0 -0 -0 0 0 0 0 -0 -0 -0 -0 -0 -0 -0
-0 -0 -0 -0 0 0 0 0 0 0 0 -0 -0 -0 0 0 0 0 0 0 0 -0 -0 -0 -0 -0 -0 -0 0 -0 0 -0 -0 0 0 0 -0 -0 -0 -0 -0 -0 -0
-0 -0 0 0 0 0 0 0 0 0 0 0 -0 -0 0 0 0 0 0 0 -0 -0 -0 -0 -0 -0 0 -0 -0 -0 -0 -0 -0 -0 -0 -0 -0 -0 -0 -0 -0 -0 -0
0 0 0 0 0 0 0 0 -0 -0 0 0 0 -0 0 0 0 -0 0 -0 0 0 0 -0 0 0 0 0 0 -0 -0 -0 -0 -0 -0 -0 -0 -0 -0 -0 -0 -0 -0
0 -0 0 0 0 0 0 -0 -0 -0 -0 0 0 0 0 0 0 -0 -0 0 0 0 0 0 0 0 0 0 0 -0 0 -0 -0 -0 -0 -0 -0 -0 -0 -0 -0 -0 -0
-0 -0 -0 0 0 0 0 -0 -0 -0 0 0 0 0 0 0 0 0 0 0 0 0 0 0 0 0 0 0 0 0 0 0 -0 -0 -0 -0 -0 -0 0 0 0 0 0
-0 0 -0 -0 -0 -0 -0 0 0 0 0 0 0 0 0 0 0 0 0 0 0 0 0 0 0 0 0 0 0 0 0 0 0 0 0 0 0 0 0 0 0 0 0
0 -0 -0 -0 -0 -0 -0 -0 0 0 0 0 0 0 0 0 0 0 0 0 0 0 0 0 0 0 0 0 0 0 0 0 0 0 0 0 0 0 0 0 0 0 0
-0 -0 0 0 0 0 0 0 -0 0 0 0 0 0 0 0 0 0 0 0 0 0 0 0 0 0 0 0 0 0 0 0 0 0 0 0 0 0 0 0 0 0 0
0 0 0 0 0 0 0 0 0 0 0 0 0 0 0 0 1 0 0 0 0 0 0 0 0 0 0 0 0 0 0 0 0 0 0 0 0 0 0 0 0 0 0
0 0 0 0 0 0 0 0 0 0 0 0 0 0 0 0 0 1 1 1 1 1 1 0 0 0 0 0 1 0 0 0 0 0 0 0 0 0 0 0 0 0 0
0 0 0 0 0 1 1 0 0 0 0 0 0 1 1 0 0 1 1 1 1 1 0 1 0 0 0 0 1 0 0 0 0 0 0 0 1 1 0 0 0 0 0
0 0 0 0 0 0 1 1 0 1 0 0 1 1 1 1 1 0 0 0 1 1 1 1 0 1 1 1 0 0 0 1 0 0 1 0 0 1 0 1 0 0 0
0 0 0 0 0 0 0 0 0 1 1 1 1 1 1 1 1 1 0 0 0 0 0 1 1 1 1 1 1 1 1 1 0 1 1 0 0 0 0 1 0 0 0
0 0 0 0 0 0 0 0 0 0 0 1 1 1 1 2 1 2 1 1 1 1 1 1 1 1 1 1 1 1 1 1 1 0 1 0 0 1 0 1 0 0 0
0 0 0 0 0 0 0 0 0 0 0 0 1 1 1 1 1 1 3 2 1 1 1 1 1 1 0 1 1 1 1 0 0 0 1 0 0 0 0 0 0 0 0
0 0 0 0 0 0 0 0 0 0 0 0 0 1 0 0 1 1 2 3 3 2 1 1 2 1 0 1 0 1 1 1 1 0 0 1 0 0 0 0 0 0 0
Wind_Speed_500mb
22 27 15 7 14 3 6 10 10 11 13 13 13 15 14 16 20 21 26 26 26 23 32 38 42 57 56 45 43 38 34 32 29 26 23 20 17 14 12 10 8 8 7
20 15 19 6 7 8 10 11 12 11 12 15 17 17 16 17 18 21 21 24 26 22 28 33 41 62 60 52 47 42 39 37 33 31 27 25 20 17 14 11 9 9 10
20 10 13 7 9 14 8 8 9 11 13 9 15 16 13 13 14 17 20 21 19 26 25 30 33 57 62 55 50 46 43 40 38 34 29 27 23 20 16 13 13 11 12
17 17 16 14 12 10 10 7 7 10 19 16 15 14 13 12 15 16 14 16 21 21 28 36 41 54 54 55 52 50 49 46 42 38 34 29 26 21 19 18 17 17 17
19 18 19 17 16 11 11 9 8 11 11 10 12 14 12 13 13 11 13 17 18 22 23 35 44 53 58 62 56 54 53 49 47 43 39 34 29 26 24 22 22 23 25
22 23 24 26 20 17 12 12 13 10 9 9 7 10 10 10 14 14 11 11 18 22 21 30 40 50 56 63 62 59 57 54 50 46 41 36 33 30 27 25 27 32 35
29 27 26 28 26 20 13 12 10 12 5 11 8 11 15 14 14 16 12 12 17 20 22 24 26 34 47 61 70 71 68 63 57 50 46 43 40 35 33 35 40 42 41
30 30 29 28 29 23 19 13 9 7 8 11 7 9 8 14 18 16 17 16 16 18 23 24 27 35 43 43 64 73 75 74 68 62 56 49 46 42 40 45 48 44 44
28 30 32 30 33 30 20 18 13 9 5 12 12 9 8 7 19 20 23 19 20 18 20 26 26 24 30 36 46 67 72 75 69 65 61 56 52 48 47 49 46 43 44
27 32 33 32 34 29 28 20 14 11 13 3 8 12 11 9 9 12 25 22 22 22 22 22 24 26 27 29 34 48 62 69 69 64 60 58 53 52 53 48 45 47 47
21 26 30 27 32 32 28 24 21 18 14 11 12 3 11 10 13 12 12 22 27 25 24 25 23 23 28 29 31 38 53 58 66 66 62 58 57 54 52 50 47 45 43
16 18 21 25 30 32 32 25 23 22 17 16 13 11 14 8 6 10 8 9 15 19 30 28 28 27 26 29 33 40 36 38 45 52 55 55 53 50 47 45 42 39 35
15 17 20 24 28 32 32 28 26 22 22 19 16 13 14 14 13 13 14 10 11 14 20 30 31 31 30 29 31 32 32 36 40 44 46 45 43 42 40 39 38 38 35
15 15 19 23 26 29 32 30 28 23 21 21 22 20 17 19 19 17 16 17 18 15 16 21 27 34 34 35 34 41 38 38 42 44 44 45 44 43 40 36 35 35 36
18 20 20 23 26 28 34 34 31 26 26 25 24 24 24 20 21 21 20 19 19 24 9 15 21 26 31 34 40 43 47 49 47 48 47 46 45 44 45 42 40 38 38
19 24 20 22 26 31 36 42 38 36 35 31 31 31 28 24 25 26 22 22 21 22 24 11 14 16 18 21 26 35 44 52 57 59 57 54 49 47 48 48 46 45 44
20 24 25 25 26 29 35 42 43 40 39 37 35 35 34 32 30 28 29 27 25 25 26 23 21 19 26 28 23 28 30 46 47 54 60 61 57 51 50 47 47 48 46
20 22 25 28 29 31 32 40 43 41 43 45 42 40 39 34 34 33 32 34 32 29 31 32 27 23 23 20 30 28 28 30 37 46 53 61 58 56 52 52 51 50 49
30 24 28 31 33 34 35 37 42 44 45 46 44 45 45 42 44 38 37 35 33 32 33 31 34 29 26 25 27 27 26 26 33 36 43 42 44 47 49 49 49 48 47
21 26 30 35 35 35 37 40 44 48 49 49 49 48 48 47 51 48 41 41 38 39 35 36 35 36 35 32 34 30 32 26 27 30 32 33 39 44 46 47 47 46 46
17 19 21 26 33 41 42 43 47 51 52 51 53 54 54 52 55 55 48 42 44 40 39 40 40 39 36 34 38 29 31 29 33 36 32 32 32 37 42 44 43 41 38
24 23 23 25 27 29 36 46 53 56 53 54 58 54 53 57 60 57 53 59 50 51 48 45 44 41 40 37 35 34 36 32 33 34 39 36 32 39 33 38 36 42 39
35 34 32 32 34 35 40 44 42 45 49 53 56 60 54 51 54 51 53 61 58 63 65 56 52 50 49 41 40 38 37 37 38 25 30 36 33 40 37 41 45 48 45
39 40 41 42 42 44 45 51 45 49 45 44 51 57 57 57 57 57 52 54 57 61 68 68 66 58 52 46 49 44 41 41 41 37 42 35 34 42 34 41 45 47 46
41 40 40 43 46 48 48 56 50 47 46 48 51 51 53 59 65 67 70 64 60 59 55 60 63 60 58 60 53 46 41 41 43 40 40 36 40 41 41 41 43 51 50
41 41 42 41 45 50 52 56 58 52 50 53 54 54 61 67 62 65 75 75 71 67 53 53 57 60 62 66 65 66 57 54 53 48 43 42 39 38 42 42 41 48 43
Wind_Direction_500mb
240 237 248 257 287 244 259 263 266 255 258 265 258 248 224 232 210 220 234 244 225 215 216 218 219 209 204 203 199 199 202 201 197 193 192 191 193 196 197 199 218 253 274
240 220 216 252 290 265 266 284 259 244 261 259 259 258 252 223 219 225 204 245 234 218 211 214 216 205 204 205 203 201 205 205 201 199 199 207 207 209 213 225 239 260 275
222 228 210 227 230 264 288 282 273 264 267 271 257 259 257 241 212 219 204 229 233 221 215 216 201 197 197 206 207 207 210 209 208 207 210 215 217 218 225 237 256 273 288
219 227 220 217 255 273 279 271 271 271 275 281 290 257 238 206 202 223 210 216 223 217 217 212 202 199 207 210 214 218 219 217 216 217 218 219 226 231 237 249 258 265 277
230 233 227 220 254 256 262 249 277 289 268 280 270 244 208 194 205 217 219 224 217 207 209 216 210 210 214 216 218 218 220 219 219 219 220 224 228 236 241 251 263 268 272
233 236 228 229 230 249 244 239 244 273 281 292 252 248 217 191 206 202 215 200 208 193 198 222 214 214 215 215 217 217 219 220 222 221 225 229 230 233 242 257 271 277 277
235 235 237 230 227 248 246 264 249 288 281 275 245 222 229 203 221 199 205 199 203 194 192 204 207 211 225 220 219 219 220 225 227 231 234 233 231 237 253 264 279 280 276
237 233 235 228 221 233 230 253 242 236 265 255 244 256 242 220 202 213 205 211 209 201 200 204 206 212 223 223 222 220 223 227 231 232 233 236 238 250 260 274 281 276 274
239 237 229 228 228 224 233 245 242 249 252 232 233 240 231 225 199 211 222 208 216 208 208 210 209 219 223 225 220 224 222 225 228 231 232 237 245 253 266 275 273 272 276
237 234 226 231 222 214 223 234 244 225 253 244 256 251 234 250 192 217 218 223 216 215 216 216 218 213 218 215 229 218 226 224 226 231 234 240 247 259 267 266 270 272 276
229 228 226 224 214 212 227 222 230 236 240 239 246 244 256 259 248 251 239 222 223 224 228 218 217 221 220 217 217 220 224 224 227 231 233 235 247 257 261 265 265 270 272
245 229 225 216 213 214 218 226 232 238 239 246 234 254 277 277 259 289 280 237 233 230 226 227 224 224 229 228 219 221 228 224 224 228 233 241 248 252 255 259 261 265 265
226 237 230 226 224 225 221 229 232 230 247 254 256 250 266 270 279 270 275 262 256 241 238 228 230 226 225 229 235 232 229 225 229 232 234 238 243 247 250 255 258 259 258
245 237 240 231 227 226 227 233 235 243 244 255 260 253 253 267 267 256 263 273 280 244 231 225 233 231 233 232 234 246 238 235 231 234 237 240 243 246 246 247 252 255 256
237 242 236 231 231 232 227 227 239 238 241 251 254 264 258 259 265 265 267 263 268 286 249 220 218 227 229 241 241 237 242 242 239 234 235 241 245 246 246 247 249 253 257
248 232 240 238 237 235 229 229 231 242 246 248 249 242 249 254 258 264 257 263 261 258 275 240 216 229 233 232 246 251 237 239 243 238 239 243 247 250 251 251 252 254 255
267 257 251 243 239 237 236 236 233 233 241 244 243 249 250 250 249 255 261 259 253 254 254 255 248 255 253 251 245 257 252 238 241 243 239 242 249 249 252 253 253 251 253
264 256 245 244 240 238 237 239 240 239 247 246 247 247 247 248 250 255 250 260 251 240 248 259 254 250 261 253 255 261 256 246 240 247 250 244 246 248 249 253 250 252 256
266 259 257 248 243 241 239 238 239 241 242 245 247 247 247 246 248 246 247 248 257 257 253 254 257 258 252 256 261 262 265 252 232 238 247 238 239 243 247 247 249 252 257
284 274 260 253 249 245 242 240 243 246 246 247 247 249 250 254 253 252 244 241 248 248 251 250 253 258 257 256 256 263 263 251 237 234 245 243 251 248 247 247 252 252 251
291 290 280 268 259 253 254 253 248 245 245 248 246 248 252 253 255 261 243 243 239 246 251 258 255 248 252 252 257 255 257 249 256 230 234 244 244 246 246 243 244 239 246
293 286 282 277 271 269 262 254 256 256 253 249 248 248 251 251 255 257 251 244 248 248 242 244 254 248 251 252 251 252 254 251 251 252 235 234 248 244 245 247 257 249 249
289 284 279 274 273 273 272 271 269 268 262 257 257 253 247 251 255 253 253 248 251 248 249 245 249 251 248 251 253 248 245 252 250 243 244 244 249 247 251 255 251 253 254
283 280 277 276 275 273 271 274 274 272 268 265 258 254 253 249 244 243 240 246 247 247 244 243 250 251 251 250 254 259 255 252 248 252 235 246 241 251 251 256 257 255 252
291 287 282 275 272 271 267 272 274 271 268 264 260 260 258 257 252 247 245 245 245 242 243 247 246 244 254 250 252 254 252 251 251 248 245 241 245 249 248 249 260 266 260
291 290 286 282 278 276 273 271 273 270 267 265 267 266 264 258 258 256 245 246 244 242 239 235 243 245 245 250 246 246 246 243 245 246 243 242 250 250 252 250 247 260 271
Wind_Speed_850mb
22 27 15 7 14 3 6 10 10 11 13 13 13 15 14 16 20 21 26 26 26 23 32 38 42 57 56 45 43 38 34 32 29 26 23 20 17 14 12 10 8 8 7
20 15 19 6 7 8 10 11 12 11 12 15 17 17 16 17 18 21 21 24 26 22 28 33 41 62 60 52 47 42 39 37 33 31 27 25 20 17 14 11 9 9 10
20 10 13 7 9 14 8 8 9 11 13 9 15 16 13 13 14 17 20 21 19 26 25 30 33 57 62 55 50 46 43 40 38 34 29 27 23 20 16 13 13 11 12
17 17 16 14 12 10 10 7 7 10 19 16 15 14 13 12 15 16 14 16 21 21 28 36 41 54 54 55 52 50 49 46 42 38 34 29 26 21 19 18 17 17 17
19 18 19 17 16 11 11 9 8 11 11 10 12 14 12 13 13 11 13 17 18 22 23 35 44 53 58 62 56 54 53 49 47 43 39 34 29 26 24 22 22 23 25
22 23 24 26 20 17 12 12 13 10 9 9 7 10 10 10 14 14 11 11 18 22 21 30 40 50 56 63 62 59 57 54 50 46 41 36 33 30 27 25 27 32 35
29 27 26 28 26 20 13 12 10 12 5 11 8 11 15 14 14 16 12 12 17 20 22 24 26 34 47 61 70 71 68 63 57 50 46 43 40 35 33 35 40 42 41
30 30 29 28 29 23 19 13 9 7 8 11 7 9 8 14 18 16 17 16 16 18 23 24 27 35 43 43 64 73 75 74 68 62 56 49 46 42 40 45 48 44 44
28 30 32 30 33 30 20 18 13 9 5 12 12 9 8 7 19 20 23 19 20 18 20 26 26 24 30 36 46 67 72 75 69 65 61 56 52 48 47 49 46 43 44
27 32 33 32 34 29 28 20 14 11 13 3 8 12 11 9 9 12 25 22 22 22 22 22 24 26 27 29 34 48 62 69 69 64 60 58 53 52 53 48 45 47 47
21 26 30 27 32 32 28 24 21 18 14 11 12 3 11 10 13 12 12 22 27 25 24 25 23 23 28 29 31 38 53 58 66 66 62 58 57 54 52 50 47 45 43
16 18 21 25 30 32 32 25 23 22 17 16 13 11 14 8 6 10 8 9 15 19 30 28 28 27 26 29 33 40 36 38 45 52 55 55 53 50 47 45 42 39 35
15 17 20 24 28 32 32 28 26 22 22 19 16 13 14 14 13 13 14 10 11 14 20 30 31 31 30 29 31 32 32 36 40 44 46 45 43 42 40 39 38 38 35
15 15 19 23 26 29 32 30 28 23 21 21 22 20 17 19 19 17 16 17 18 15 16 21 27 34 34 35 34 41 38 38 42 44 44 45 44 43 40 36 35 35 36
18 20 20 23 26 28 34 34 31 26 26 25 24 24 24 20 21 21 20 19 19 24 9 15 21 26 31 34 40 43 47 49 47 48 47 46 45 44 45 42 40 38 38
19 24 20 22 26 31 36 42 38 36 35 31 31 31 28 24 25 26 22 22 21 22 24 11 14 16 18 21 26 35 44 52 57 59 57 54 49 47 48 48 46 45 44
20 24 25 25 26 29 35 42 43 40 39 37 35 35 34 32 30 28 29 27 25 25 26 23 21 19 26 28 23 28 30 46 47 54 60 61 57 51 50 47 47 48 46
20 22 25 28 29 31 32 40 43 41 43 45 42 40 39 34 34 33 32 34 32 29 31 32 27 23 23 20 30 28 28 30 37 46 53 61 58 56 52 52 51 50 49
30 24 28 31 33 34 35 37 42 44 45 46 44 45 45 42 44 38 37 35 33 32 33 31 34 29 26 25 27 27 26 26 33 36 43 42 44 47 49 49 49 48 47
21 26 30 35 35 35 37 40 44 48 49 49 49 48 48 47 51 48 41 41 38 39 35 36 35 36 35 32 34 30 32 26 27 30 32 33 39 44 46 47 47 46 46
17 19 21 26 33 41 42 43 47 51 52 51 53 54 54 52 55 55 48 42 44 40 39 40 40 39 36 34 38 29 31 29 33 36 32 32 32 37 42 44 43 41 38
24 23 23 25 27 29 36 46 53 56 53 54 58 54 53 57 60 57 53 59 50 51 48 45 44 41 40 37 35 34 36 32 33 34 39 36 32 39 33 38 36 42 39
35 34 32 32 34 35 40 44 42 45 49 53 56 60 54 51 54 51 53 61 58 63 65 56 52 50 49 41 40 38 37 37 38 25 30 36 33 40 37 41 45 48 45
39 40 41 42 42 44 45 51 45 49 45 44 51 57 57 57 57 57 52 54 57 61 68 68 66 58 52 46 49 44 41 41 41 37 42 35 34 42 34 41 45 47 46
41 40 40 43 46 48 48 56 50 47 46 48 51 51 53 59 65 67 70 64 60 59 55 60 63 60 58 60 53 46 41 41 43 40 40 36 40 41 41 41 43 51 50
41 41 42 41 45 50 52 56 58 52 50 53 54 54 61 67 62 65 75 75 71 67 53 53 57 60 62 66 65 66 57 54 53 48 43 42 39 38 42 42 41 48 43
Wind_Direction_850mb
240 237 248 257 287 244 259 263 266 255 258 265 258 248 224 232 210 220 234 244 225 215 216 218 219 209 204 203 199 199 202 201 197 193 192 191 193 196 197 199 218 253 274
240 220 216 252 290 265 266 284 259 244 261 259 259 258 252 223 219 225 204 245 234 218 211 214 216 205 204 205 203 201 205 205 201 199 199 207 207 209 213 225 239 260 275
222 228 210 227 230 264 288 282 273 264 267 271 257 259 257 241 212 219 204 229 233 221 215 216 201 197 197 206 207 207 210 209 208 207 210 215 217 218 225 237 256 273 288
219 227 220 217 255 273 279 271 271 271 275 281 290 257 238 206 202 223 210 216 223 217 217 212 202 199 207 210 214 218 219 217 216 217 218 219 226 231 237 249 258 265 277
230 233 227 220 254 256 262 249 277 289 268 280 270 244 208 194 205 217 219 224 217 207 209 216 210 210 214 216 218 218 220 219 219 219 220 224 228 236 241 251 263 268 272
233 236 228 229 230 249 244 239 244 273 281 292 252 248 217 191 206 202 215 200 208 193 198 222 214 214 215 215 217 217 219 220 222 221 225 229 230 233 242 257 271 277 277
235 235 237 230 227 248 246 264 249 288 281 275 245 222 229 203 221 199 205 199 203 194 192 204 207 211 225 220 219 219 220 225 227 231 234 233 231 237 253 264 279 280 276
237 233 235 228 221 233 230 253 242 236 265 255 244 256 242 220 202 213 205 211 209 201 200 204 206 212 223 223 222 220 223 227 231 232 233 236 238 250 260 274 281 276 274
239 237 229 228 228 224 233 245 242 249 252 232 233 240 231 225 199 211 222 208 216 208 208 210 209 219 223 225 220 224 222 225 228 231 232 237 245 253 266 275 273 272 276
237 234 226 231 222 214 223 234 244 225 253 244 256 251 234 250 192 217 218 223 216 215 216 216 218 213 218 215 229 218 226 224 226 231 234 240 247 259 267 266 270 272 276
229 228 226 224 214 212 227 222 230 236 240 239 246 244 256 259 248 251 239 222 223 224 228 218 217 221 220 217 217 220 224 224 227 231 233 235 247 257 261 265 265 270 272
245 229 225 216 213 214 218 226 232 238 239 246 234 254 277 277 259 289 280 237 233 230 226 227 224 224 229 228 219 221 228 224 224 228 233 241 248 252 255 259 261 265 265
226 237 230 226 224 225 221 229 232 230 247 254 256 250 266 270 279 270 275 262 256 241 238 228 230 226 225 229 235 232 229 225 229 232 234 238 243 247 250 255 258 259 258
245 237 240 231 227 226 227 233 235 243 244 255 260 253 253 267 267 256 263 273 280 244 231 225 233 231 233 232 234 246 238 235 231 234 237 240 243 246 246 247 252 255 256
237 242 236 231 231 232 227 227 239 238 241 251 254 264 258 259 265 265 267 263 268 286 249 220 218 227 229 241 241 237 242 242 239 234 235 241 245 246 246 247 249 253 257
248 232 240 238 237 235 229 229 231 242 246 248 249 242 249 254 258 264 257 263 261 258 275 240 216 229 233 232 246 251 237 239 243 238 239 243 247 250 251 251 252 254 255
267 257 251 243 239 237 236 236 233 233 241 244 243 249 250 250 249 255 261 259 253 254 254 255 248 255 253 251 245 257 252 238 241 243 239 242 249 249 252 253 253 251 253
264 256 245 244 240 238 237 239 240 239 247 246 247 247 247 248 250 255 250 260 251 240 248 259 254 250 261 253 255 261 256 246 240 247 250 244 246 248 249 253 250 252 256
266 259 257 248 243 241 239 238 239 241 242 245 247 247 247 246 248 246 247 248 257 257 253 254 257 258 252 256 261 262 265 252 232 238 247 238 239 243 247 247 249 252 257
284 274 260 253 249 245 242 240 243 246 246 247 247 249 250 254 253 252 244 241 248 248 251 250 253 258 257 256 256 263 263 251 237 234 245 243 251 248 247 247 252 252 251
291 290 280 268 259 253 254 253 248 245 245 248 246 248 252 253 255 261 243 243 239 246 251 258 255 248 252 252 257 255 257 249 256 230 234 244 244 246 246 243 244 239 246
293 286 282 277 271 269 262 254 256 256 253 249 248 248 251 251 255 257 251 244 248 248 242 244 254 248 251 252 251 252 254 251 251 252 235 234 248 244 245 247 257 249 249
289 284 279 274 273 273 272 271 269 268 262 257 257 253 247 251 255 253 253 248 251 248 249 245 249 251 248 251 253 248 245 252 250 243 244 244 249 247 251 255 251 253 254
283 280 277 276 275 273 271 274 274 272 268 265 258 254 253 249 244 243 240 246 247 247 244 243 250 251 251 250 254 259 255 252 248 252 235 246 241 251 251 256 257 255 252
291 287 282 275 272 271 267 272 274 271 268 264 260 260 258 257 252 247 245 245 245 242 243 247 246 244 254 250 252 254 252 251 251 248 245 241 245 249 248 249 260 266 260
291 290 286 282 278 276 273 271 273 270 267 265 267 266 264 258 258 256 245 246 244 242 239 235 243 245 245 250 246 246 246 243 245 246 243 242 250 250 252 250 247 260 271